Medicine Lodge, KS

6:32 AM CDT on May 30, 2017 (GMT -0500)
Medicine Lodge

Weather History for KP28 - June, 2013

Change the Weather History Date:

Tuesday, June 25, 2013

  Actual Average Record
Temperature  
Mean Temperature 88 °F 79 °F  
Max Temperature 101 °F 91 °F 113 °F (1911)
Min Temperature 74 °F 67 °F 48 °F (1958)
Degree Days  
Heating Degree Days 0 0  
Month to date heating degree days 4 0  
Since 1 June heating degree days 4 0  
Since 1 July heating degree days 4523 4455  
Cooling Degree Days 23 14  
Month to date cooling degree days 316 278  
Year to date cooling degree days 459 434  
Since 1 June cooling degree days 316 278  
Growing Degree Days 36 (Base 50)    
Moisture  
Dew Point 64 °F    
Average Humidity 49    
Maximum Humidity 73    
Minimum Humidity 24    
Precipitation  
Precipitation 0.00 in 0.12 in 2.16 in (1941)
Month to date precipitation 1.68 3.58  
Year to date precipitation 12.03 13.32  
Snow  
Snow 0.00 in 0.00 in - ()
Month to date snowfall 0.0 0.0  
Since 1 June snowfall 0.0 0.0  
Since 1 July snowfall 25.0 8.5  
Snow Depth 0.00 in    
Sea Level Pressure  
Sea Level Pressure 29.70 in    
Wind  
Wind Speed 15 mph (South)    
Max Wind Speed 29 mph    
Max Gust Speed 39 mph    
T = Trace of Precipitation, MM = Missing Value Source: NWS Daily Summary

Daily Weather History Graph

Daily Weather History Graph

Search for Another Location

Airport or City:

Trip Planner

Search our weather history database for the weather conditions in past years. The results will help you decide how hot, cold, wet, or windy it might be!

Date:

Astronomy

Jun. 25, 2013 Rise Set
Actual Time 6:15 AM CDT 8:58 PM CDT
Civil Twilight 5:44 AM CDT 9:29 PM CDT
Nautical Twilight 5:05 AM CDT 10:08 PM CDT
Astronomical Twilight 4:21 AM CDT 10:52 PM CDT
Moon 10:49 PM CDT (6/25) 8:53 AM CDT (6/25)
Length of Visible Light 15h 45m
Length of Day
14h 43m
Waning Gibbous, 92% of the Moon is Illuminated
Jun 25
Waning Gibbous
Jun 29
Last Quarter
Jul 8
New
Jul 15
First Quarter
Jul 22
Full

Hourly Weather History & Observations

Time (CDT) Temp. Heat Index Dew Point Humidity Pressure Visibility Wind Dir Wind Speed Gust Speed Precip Events Conditions
12:56 AM 79.0 °F - 66.9 °F 66% 29.77 in - SSE 13.8 mph 27.6 mph N/A   Unknown
1:56 AM 77.0 °F - 66.0 °F 69% 29.77 in - SE 10.4 mph - N/A   Unknown
2:56 AM 75.9 °F - 64.9 °F 69% 29.75 in - SSE 11.5 mph 21.9 mph N/A   Unknown
3:56 AM 75.9 °F - 64.9 °F 69% 29.74 in - SSE 10.4 mph 19.6 mph N/A   Unknown
4:56 AM 75.0 °F - 64.9 °F 71% 29.74 in - SSE 9.2 mph - N/A   Unknown
5:56 AM 73.9 °F - 64.0 °F 71% 29.74 in - SSE 11.5 mph - N/A   Unknown
6:56 AM 73.9 °F - 64.0 °F 71% 29.74 in - SSE 10.4 mph - N/A   Unknown
7:56 AM 77.0 °F - 64.0 °F 64% 29.73 in - South 11.5 mph - N/A   Unknown
8:56 AM 82.0 °F 83.1 °F 63.0 °F 52% 29.73 in - South 16.1 mph - N/A   Unknown
9:56 AM 84.9 °F 85.9 °F 63.0 °F 48% 29.71 in - South 23.0 mph 32.2 mph N/A   Unknown
10:56 AM 87.1 °F 88.3 °F 64.0 °F 46% 29.70 in - SSW 23.0 mph 34.5 mph N/A   Unknown
11:56 AM 91.0 °F 91.9 °F 63.0 °F 39% 29.69 in - South 21.9 mph 31.1 mph N/A   Unknown
12:56 PM 93.9 °F 94.0 °F 61.0 °F 33% 29.68 in - SSW 20.7 mph 31.1 mph N/A   Unknown
1:56 PM 96.1 °F 96.0 °F 60.1 °F 30% 29.67 in - SSW 21.9 mph 29.9 mph N/A   Unknown
2:56 PM 99.0 °F 99.5 °F 60.1 °F 28% 29.65 in - South 19.6 mph 28.8 mph N/A   Unknown
3:56 PM 100.0 °F 100.2 °F 59.0 °F 26% 29.64 in - SSW 17.3 mph 28.8 mph N/A   Unknown
4:56 PM 100.9 °F 100.5 °F 57.9 °F 24% 29.62 in - SSW 20.7 mph 32.2 mph N/A   Unknown
5:56 PM 100.0 °F 99.7 °F 57.9 °F 25% 29.62 in - SSW 19.6 mph 31.1 mph N/A   Unknown
6:56 PM 99.0 °F 99.5 °F 60.1 °F 28% 29.61 in - South 20.7 mph 27.6 mph N/A   Unknown
7:56 PM 96.1 °F 98.8 °F 64.9 °F 36% 29.63 in - South 17.3 mph 26.5 mph N/A   Unknown
8:56 PM 91.0 °F 95.2 °F 68.0 °F 47% 29.65 in - SSE 13.8 mph 19.6 mph N/A   Unknown
9:56 PM 87.1 °F 91.3 °F 69.1 °F 55% 29.72 in - ESE 10.4 mph - N/A   Unknown
10:56 PM 84.0 °F 87.8 °F 69.1 °F 61% 29.76 in - NNE 12.7 mph - N/A   Unknown
11:56 PM 82.9 °F 86.5 °F 69.1 °F 63% 29.74 in - East 4.6 mph - N/A   Unknown